Mojave, CA

10:43 AM PDT on June 24, 2018 (GMT -0700)
Mojave

Weather History for KMHV - October, 2017

Change the Weather History Date:

Sunday, October 8, 2017

  Actual Average Record
Temperature  
Mean Temperature 76 °F -  
Max Temperature 86 °F 80 °F 98 °F (1996)
Min Temperature 66 °F 52 °F 38 °F (1975)
Cooling Degree Days 11    
Growing Degree Days 26 (Base 50)    
Moisture  
Dew Point 25 °F    
Average Humidity 17    
Maximum Humidity 28    
Minimum Humidity 9    
Precipitation  
Precipitation 0.00 in - - ()
Sea Level Pressure  
Sea Level Pressure 29.76 in    
Wind  
Wind Speed 20 mph (WSW)    
Max Wind Speed 34 mph    
Max Gust Speed 52 mph    
Visibility 10 miles    
Events      
Averages and records for this station are not official NWS values.
T = Trace of Precipitation, MM = Missing Value Source: NWS Daily Summary

Daily Weather History Graph

Daily Weather History Graph

Search for Another Location

Airport or City:

Astronomy

Oct. 08, 2017 Rise Set
Actual Time 6:53 AM PDT 6:26 PM PDT
Civil Twilight 6:27 AM PDT 6:51 PM PDT
Nautical Twilight 5:58 AM PDT 7:20 PM PDT
Astronomical Twilight 5:29 AM PDT 7:50 PM PDT
Moon 8:57 PM PDT (10/8) 9:55 AM PDT (10/8)
Length of Visible Light 12h 23m
Length of Day
11h 33m
Waning Gibbous, 88% of the Moon is Illuminated
Oct 8
Waning Gibbous
Oct 12
Last Quarter
Oct 19
New
Oct 27
First Quarter
Nov 3
Full

Hourly Weather History & Observations

Time (PDT) Temp. Dew Point Humidity Pressure Visibility Wind Dir Wind Speed Gust Speed Precip Events Conditions
12:00 AM 71.6 °F 15.8 °F 12% 29.82 in 10.0 mi WNW 18.4 mph - N/A   Clear
12:20 AM 71.6 °F 17.6 °F 13% 29.82 in 10.0 mi West 17.3 mph 28.8 mph N/A   Clear
12:40 AM 73.4 °F 15.8 °F 11% 29.82 in 10.0 mi WSW 15.0 mph 29.9 mph N/A   Clear
1:00 AM 69.8 °F 21.2 °F 16% 29.81 in 10.0 mi West 13.8 mph 23.0 mph N/A   Clear
1:20 AM 69.8 °F 24.8 °F 18% 29.80 in 10.0 mi West 21.9 mph - N/A   Clear
1:40 AM 69.8 °F 21.2 °F 16% 29.78 in 10.0 mi West 18.4 mph 26.5 mph N/A   Clear
2:00 AM 69.8 °F 21.2 °F 16% 29.78 in 10.0 mi West 26.5 mph 32.2 mph N/A   Clear
2:20 AM 68.0 °F 26.6 °F 21% 29.79 in 10.0 mi West 19.6 mph 28.8 mph N/A   Clear
2:40 AM 68.0 °F 24.8 °F 20% 29.80 in 10.0 mi WSW 18.4 mph 25.3 mph N/A   Clear
3:00 AM 68.0 °F 24.8 °F 20% 29.78 in 10.0 mi West 29.9 mph - N/A   Clear
3:20 AM 69.8 °F 23.0 °F 17% 29.77 in 10.0 mi West 32.2 mph - N/A   Clear
3:40 AM 69.8 °F 24.8 °F 18% 29.77 in 10.0 mi WSW 26.5 mph 35.7 mph N/A   Clear
4:00 AM 68.0 °F 23.0 °F 18% 29.77 in 10.0 mi WSW 21.9 mph 31.1 mph N/A   Clear
4:20 AM 68.0 °F 23.0 °F 18% 29.77 in 10.0 mi WSW 20.7 mph 26.5 mph N/A   Clear
4:40 AM 68.0 °F 21.2 °F 17% 29.78 in 10.0 mi WSW 17.3 mph - N/A   Clear
5:00 AM 68.0 °F 23.0 °F 18% 29.78 in 10.0 mi WSW 17.3 mph - N/A   Clear
5:20 AM 68.0 °F 24.8 °F 20% 29.77 in 10.0 mi WSW 19.6 mph 25.3 mph N/A   Clear
5:40 AM 68.0 °F 24.8 °F 20% 29.78 in 10.0 mi WSW 13.8 mph 21.9 mph N/A   Clear
6:00 AM 68.0 °F 21.2 °F 17% 29.78 in 10.0 mi WSW 9.2 mph 19.6 mph N/A   Clear
6:20 AM 66.2 °F 23.0 °F 19% 29.78 in 10.0 mi WSW 10.4 mph - N/A   Clear
6:40 AM 68.0 °F 24.8 °F 20% 29.78 in 10.0 mi South 12.7 mph - N/A   Clear
7:00 AM 68.0 °F 26.6 °F 21% 29.77 in 10.0 mi South 16.1 mph - N/A   Clear
7:20 AM 68.0 °F 26.6 °F 21% 29.78 in 10.0 mi SW 12.7 mph 18.4 mph N/A   Clear
7:40 AM 69.8 °F 24.8 °F 18% 29.76 in 10.0 mi WSW 18.4 mph - N/A   Clear
8:00 AM 69.8 °F 24.8 °F 18% 29.76 in 10.0 mi WSW 18.4 mph 27.6 mph N/A   Clear
8:20 AM 75.2 °F 17.6 °F 11% 29.75 in 10.0 mi WSW 20.7 mph 28.8 mph N/A   Clear
8:40 AM 75.2 °F 21.2 °F 13% 29.75 in 10.0 mi West 21.9 mph 32.2 mph N/A   Clear
9:00 AM 75.2 °F 21.2 °F 13% 29.76 in 10.0 mi West 19.6 mph 27.6 mph N/A   Clear
9:20 AM 77.0 °F 21.2 °F 12% 29.77 in 10.0 mi WSW 16.1 mph - N/A   Clear
9:40 AM 78.8 °F 21.2 °F 12% 29.78 in 10.0 mi WSW 12.7 mph 19.6 mph N/A   Clear
10:00 AM 80.6 °F 21.2 °F 11% 29.77 in 10.0 mi WSW 12.7 mph 23.0 mph N/A   Clear
10:20 AM 80.6 °F 21.2 °F 11% 29.77 in 10.0 mi SW 13.8 mph - N/A   Clear
10:40 AM 82.4 °F 21.2 °F 10% 29.77 in 10.0 mi WSW 15.0 mph 21.9 mph N/A   Clear
11:00 AM 84.2 °F 21.2 °F 10% 29.76 in 10.0 mi West 19.6 mph - N/A   Clear
11:20 AM 84.2 °F 21.2 °F 10% 29.77 in 10.0 mi WSW 13.8 mph 26.5 mph N/A   Clear
11:40 AM 86.0 °F 21.2 °F 9% 29.77 in 10.0 mi WNW 17.3 mph - N/A   Clear
12:00 PM 86.0 °F 23.0 °F 10% 29.77 in 10.0 mi West 16.1 mph 23.0 mph N/A   Clear
12:20 PM 86.0 °F 23.0 °F 10% 29.76 in 10.0 mi WNW 12.7 mph 18.4 mph N/A   Clear
12:40 PM 86.0 °F 21.2 °F 9% 29.76 in 10.0 mi West 17.3 mph 25.3 mph N/A   Clear
1:00 PM 86.0 °F 23.0 °F 10% 29.73 in 10.0 mi WNW 23.0 mph 32.2 mph N/A   Clear
1:20 PM 86.0 °F 23.0 °F 10% 29.72 in 10.0 mi West 28.8 mph 38.0 mph N/A   Clear
1:40 PM 84.2 °F 21.2 °F 10% 29.71 in 10.0 mi WNW 31.1 mph 38.0 mph N/A   Clear
2:00 PM 84.2 °F 23.0 °F 11% 29.70 in 10.0 mi WNW 33.4 mph 43.7 mph N/A   Clear
2:20 PM 84.2 °F 24.8 °F 11% 29.70 in 10.0 mi WNW 33.4 mph 42.6 mph N/A   Clear
2:40 PM 84.2 °F 24.8 °F 11% 29.70 in 10.0 mi West 28.8 mph 40.3 mph N/A   Clear
3:00 PM 82.4 °F 26.6 °F 13% 29.69 in 10.0 mi West 32.2 mph 41.4 mph N/A   Clear
3:20 PM 82.4 °F 26.6 °F 13% 29.69 in 10.0 mi WNW 32.2 mph 42.6 mph N/A   Clear
3:40 PM 82.4 °F 26.6 °F 13% 29.69 in 10.0 mi WNW 33.4 mph 43.7 mph N/A   Clear
4:00 PM 80.6 °F 26.6 °F 14% 29.71 in 10.0 mi West 27.6 mph 35.7 mph N/A   Clear
4:20 PM 80.6 °F 30.2 °F 16% 29.70 in 10.0 mi West 21.9 mph 32.2 mph N/A   Clear
4:40 PM 80.6 °F 26.6 °F 14% 29.69 in 10.0 mi WNW 34.5 mph 44.9 mph N/A   Clear
5:00 PM 78.8 °F 28.4 °F 16% 29.71 in 10.0 mi West 25.3 mph 39.1 mph N/A   Clear
5:20 PM 77.0 °F 30.2 °F 18% 29.73 in 10.0 mi SW 18.4 mph 29.9 mph N/A   Clear
5:40 PM 75.2 °F 30.2 °F 19% 29.72 in 10.0 mi SSW 20.7 mph 32.2 mph N/A   Clear
6:00 PM 75.2 °F 30.2 °F 19% 29.71 in 10.0 mi SW 19.6 mph 41.4 mph N/A   Clear
6:20 PM 73.4 °F 32.0 °F 22% 29.72 in 10.0 mi SW 23.0 mph 33.4 mph N/A   Clear
6:40 PM 71.6 °F 33.8 °F 25% 29.71 in 10.0 mi SW 31.1 mph 38.0 mph N/A   Clear
7:00 PM 71.6 °F 33.8 °F 25% 29.69 in 10.0 mi WSW 33.4 mph 51.8 mph N/A   Clear
7:20 PM 69.8 °F 35.6 °F 28% 29.70 in 10.0 mi WSW 28.8 mph 39.1 mph N/A   Clear
7:40 PM 73.4 °F 26.6 °F 18% 29.70 in 10.0 mi WNW 28.8 mph - N/A   Clear
8:00 PM 75.2 °F 28.4 °F 18% 29.70 in 10.0 mi NW 20.7 mph 46.0 mph N/A   Clear
8:20 PM 71.6 °F 30.2 °F 22% 29.72 in 10.0 mi NW 25.3 mph 32.2 mph N/A   Clear
8:40 PM 71.6 °F 30.2 °F 22% 29.74 in 10.0 mi SSE 11.5 mph 18.4 mph N/A   Clear
9:00 PM 69.8 °F 32.0 °F 25% 29.75 in 10.0 mi SSE 15.0 mph 31.1 mph N/A   Clear
9:20 PM 71.6 °F 28.4 °F 20% 29.75 in 10.0 mi WNW 17.3 mph 35.7 mph N/A   Clear
9:40 PM 69.8 °F 28.4 °F 21% 29.78 in 10.0 mi SSW 4.6 mph - N/A   Clear
10:00 PM 69.8 °F 30.2 °F 23% 29.79 in 10.0 mi WSW 13.8 mph - N/A   Clear
10:20 PM 69.8 °F 30.2 °F 23% 29.81 in 10.0 mi WSW 13.8 mph - N/A   Clear
10:40 PM 68.0 °F 32.0 °F 26% 29.81 in 10.0 mi North - - N/A   Clear
11:00 PM 68.0 °F 30.2 °F 24% 29.83 in 10.0 mi WSW 3.5 mph 12.7 mph N/A   Clear
11:20 PM 66.2 °F 30.2 °F 26% 29.85 in 10.0 mi WSW 6.9 mph - N/A   Clear
11:40 PM 66.2 °F 28.4 °F 24% 29.86 in 10.0 mi Calm Calm - N/A   Clear